Regional Weather Roundup
Issued by NWS State College, PA

Home | Current Version | Previous Version | Text Only | Print | Product List | Glossary On
Versions: 1 2 3 4 5 6 7 8 9 10 11 12 13 14 15 16 17 18 19 20 21 22 23 24 25 26 27 28 29 30 31 32 33 34 35 36 37 38 39 40 41 42 43 44 45 46 47 48 49 50
000
ASUS41 KCTP 221103
RWRCTP

REGIONAL WEATHER ROUNDUP
NATIONAL WEATHER SERVICE STATE COLLEGE PA
700 AM EDT FRI MAY 22 2015

Note: "fair" indicates few or no clouds below 12,000 feet with no
significant weather and/or obstructions to visibility.

* = STATION THAT DOES NOT REPORT PRECIPITATION /E.G. RAIN...SNOW...ETC/
    THUNDER OR FOG.

PAZ002>004-007>009-013>016-020>023-029>032-221200-
WESTERN PENNSYLVANIA

CITY           SKY/WX    TMP DP  RH WIND       PRES   REMARKS
ERIE           PTSUNNY   51  41  68 W7        30.03R
MEADVILLE      LGT RAIN  45  39  79 S6        30.03R
FRANKLIN*      PTSUNNY   45  34  65 SW8       30.05R
NEW CASTLE     FAIR      46  41  83 CALM      30.07R
BEAVER COUNTY  NOT AVBL
BUTLER*        PTSUNNY   43  39  87 W3        30.08R
PITTSBURGH INT PTCLDY    45  38  76 W8        30.07R
PITTSBURGH     SUNNY     46  36  68 SW9       30.07R
INDIANA*       MOSUNNY   43  43 100 W5        30.10R FOG
LATROBE        SUNNY     45  45 100 S9        30.11R
WASHINGTON CO* CLEAR     41  37  87 SW5       30.11S
$$

PAZ004>006-010>012-017>019-024>028-033>037-041-042-045-046-049>053-221200-
CENTRAL PENNSYLVANIA

CITY           SKY/WX    TMP DP  RH WIND       PRES   REMARKS
BRADFORD       SUNNY     43  35  73 W5        29.99R
DUBOIS         PTSUNNY   41  38  89 SW7       30.02R FOG
CLEARFIELD     MOSUNNY   42  40  92 SW8       30.03R FOG
JOHNSTOWN      SUNNY     43  37  79 SW8       30.05R
ALTOONA        SUNNY     47  39  74 SW9       30.05R
STATE COLLEGE  SUNNY     45  41  87 W9        30.03R
WILLIAMSPORT   SUNNY     48  42  80 W12       29.98R
SELINSGROVE    SUNNY     49  43  80 CALM      30.00R
FT INDIANTOWN  SUNNY     53  40  60 W14       29.99R
CAPITAL CITY   SUNNY     51  40  65 W8        30.01R
HARRISBURG     SUNNY     52  41  66 NW12      30.00R
YORK           SUNNY     50  41  71 W5        30.01R
$$

PAZ038>040-043-044-047-048-054-055-060>062-067>071-221200-
EASTERN PENNSYLVANIA

CITY           SKY/WX    TMP DP  RH WIND       PRES   REMARKS
SCRANTON       SUNNY     49  41  74 SW6       29.95R
MOUNT POCONO   SUNNY     43  39  86 W9        29.93R
ALLENTOWN      SUNNY     51  42  71 W8        29.95R
QUAKERTOWN*    SUNNY     50  41  71 NW5       29.97R
READING        SUNNY     50  44  80 CALM      29.98R
LANCASTER      SUNNY     50  41  71 W12       30.00R
COATESVILLE    SUNNY     50  45  81 NW16      29.98S
POTTSTOWN      SUNNY     50  44  80 NW6       29.98R
BLUE BELL      SUNNY     52  45  76 CALM      29.96R
DOYLESTOWN     SUNNY     50  42  74 NW7       29.95R
WILLOW GROVE   NOT AVBL
NORTH PHILA    SUNNY     53  44  71 W8        29.97R
PHILADELPHIA   SUNNY     53  44  71 W10       29.97R
$$



USA.gov is the U.S. government's official web portal to all federal, state and local government web resources and services.